NOAA 15 (25338 NORAD) Tracking and Keplerian Element Data

This shows tracking and keplerian element data for the satellite.

Feedback or suggestion? Click here.




ElementValue
Catalog25338
NameNOAA 15
Epoch Orbit13821
Epoch Day92.10934298
Epoch Year2020
RAAN117.5242
Inclination98.7252
Eccentricity0.0011412
Argument of Perigee125.017
Mean Anonmoly235.2083
Mean Motion14.25956842
Decay Rate2E-07
L11 25338U 98030A 20092.10934298 .00000020 00000-0 26943-4 0 9990
L22 25338 98.7252 117.5242 0011412 125.0170 235.2083 14.25956842138217

Live tracking and technical data element details for NOAA 15 (NORAD 25338). NOAA 15 can be tracked NOW for your location showing map with azimuth and elevation plus other details from your city location.

Track the satellite on the map from your city or location and see movement details for azimuth, elevation, latitude, longitude, range, height, and movement on the map or in text.







IsCatalogInMostPopularTable: catalog: 25338, numindb: 352
Update: records affected: 1



GetName: 25338 NOAA 15

Hit Count: updated at: Thu, 02 Apr 2020 03:51:43 GMT